Weather Roundup
Issued by NWS

Home | Current Version | Previous Version | Text Only | Print | Product List | Glossary On
Versions: 1 2 3 4 5 6 7 8 9 10 11 12 13 14 15 16 17 18 19 20 21 22 23 24 25 26 27 28 29 30 31 32 33 34 35 36 37 38 39 40 41 42 43 44 45 46 47 48 49 50
896
NZUS93 KARX 121810
HRRWXR

CURRENT HOURLY OBSERVATIONS ACROSS
MUCH OF THE UPPER MISSISSIPPI VALLEY
NATIONAL WEATHER SERVICE LA CROSSE WI
1200 PM CST TUE DEC 12 2017


...SOUTHEAST MINNESOTA...


CITY           SKY/WX    TMP DP  RH WIND       PRES   REMARKS
ROCHESTER      PTSUNNY   14   7  73 W12       30.11F WCI   0
ROCHESTER/MAYO MOCLDY    18   7  63 SW6       30.13F WCI   9
WINONA           N/A     18   5  57 W7        30.17F WCI   8
AUSTIN         NOT AVBL
ALBERT LEA     MOSUNNY   19   9  63 W5        30.12F WCI  13
DODGE CENTER   CLOUDY    16   7  67 SW8       30.11F WCI   5
PRESTON        MOSUNNY   17   4  57 NW10      30.12F WCI   4
OWATONNA       CLOUDY    18   9  68 SW7       30.11F WCI   8
FARIBAULT      CLOUDY    18   9  68 S6        30.12F WCI   9
$$

...ELSEWHERE IN MINNESOTA...


CITY           SKY/WX    TMP DP  RH WIND       PRES   REMARKS
MINNEAPOLIS    CLOUDY    15   7  70 CALM      30.13F
INTNL FALLS    LGT SNOW   7   3  84 SE6       29.97F FOG     WCI  -3
DULUTH         CLOUDY     8   2  76 N8        30.00F WCI  -4
RED WING       CLOUDY    16   1  53 W3        30.13F
REDWOOD FALLS  PTSUNNY   29  21  72 SW7       30.08F WCI  22
MANKATO        CLOUDY    19  11  70 S6        30.12F WCI  11
WORTHINGTON    CLOUDY    26  21  81 SW15      30.10F WCI  14
FAIRMONT       MOSUNNY   27  19  72 SW10      30.11F WCI  17
$$

...SOUTHWEST WISCONSIN...


CITY           SKY/WX    TMP DP  RH WIND       PRES   REMARKS
LA CROSSE      PTSUNNY   19   4  51 NW9       30.16F WCI   8
PRAIRIE DU CHI SUNNY     20   4  49 W9        30.15F WCI   9
BOSCOBEL       SUNNY     20   4  50 W6        30.14F WCI  12
LONE ROCK      SUNNY     18   5  57 W9        30.11F WCI   7
PLATTEVILLE    SUNNY     20   8  60 W12       30.11F WCI   8
FORT MC COY    MOSUNNY   17   3  55 W8        30.12F WCI   6
CAMP DOUGLAS   MOSUNNY   18   1  49 W13       30.09F WCI   4
MAUSTON-NEW LI MOCLDY    15   2  54 W10G16    30.08F WCI   3
VIROQUA        FAIR      16   5  61 NW9       30.09F WCI   4
WIS DELLS      PTSUNNY   17   1  49 NW9       30.07F WCI   6
$$

...ELSEWHERE IN WISCONSIN...


CITY           SKY/WX    TMP DP  RH WIND       PRES   REMARKS
MILWAUKEE      PTSUNNY   19   5  54 NW10G22   30.04F WCI   7
MADISON        MOSUNNY   18   5  57 NW9G21    30.07F WCI   7
GREEN BAY      CLOUDY    18   8  65 NW12      30.03F WCI   5
EAU CLAIRE     CLOUDY    11   2  67 W9        30.11F WCI  -2
BLACK RVR FLS  CLOUDY    17   1  51 W8        30.11F WCI   6
MEDFORD        CLOUDY     9  -1  64 W7        30.01F WCI  -3
WAUSAU         SUNNY     13   1  59 NW8       30.01F WCI   2
WIS RAPIDS     SUNNY     13   2  61 NW13      30.07F WCI  -2
MARSHFIELD     PTSUNNY    9   1  70 NW10      30.04F WCI  -5
RICE LAKE      CLOUDY    11   1  65 CALM      30.10F
$$

...NORTHEAST IOWA...


CITY           SKY/WX    TMP DP  RH WIND       PRES   REMARKS
WATERLOO       SUNNY     21   3  45 W10       30.17F WCI  10
DUBUQUE        SUNNY     18   5  57 NW12      30.12F WCI   5
DECORAH        SUNNY     18   5  57 NW8       30.12F WCI   7
MASON CITY     SUNNY     22   7  52 W10       30.16F WCI  11
CHARLES CITY   SUNNY     21   7  53 W10       30.15F WCI  10
OELWEIN        SUNNY     19   7  58 W13       30.14F WCI   7
$$

...ELSEWHERE IN IOWA...


CITY           SKY/WX    TMP DP  RH WIND       PRES   REMARKS
DES MOINES     PTSUNNY   26   7  44 W9        30.23F WCI  17
IOWA CITY      SUNNY     25   6  44 NW13      30.20F WCI  14
FORT DODGE     SUNNY     26  16  65 W9        30.17F WCI  17
MARSHALLTOWN   SUNNY     24   5  44 W12       30.18F WCI  13
CEDAR RAPIDS   SUNNY     24   7  48 NW14      30.16F WCI  12
$$

...NORTHERN ILLINOIS...


CITY           SKY/WX    TMP DP  RH WIND       PRES   REMARKS
CHICAGO-OHARE  MOSUNNY   20   7  57 NW12      30.06F WCI   8
CHICAGO-MIDWAY MOSUNNY   21   7  54 NW15G23   30.07F WCI   8
MOLINE         SUNNY     26   9  48 W13       30.16F WCI  15
ROCKFORD       MOSUNNY   19   9  65 W15       30.12F WCI   5
PEORIA         SUNNY     26   6  42 NW10G24   30.15F WCI  16
$$

NOTE: "FAIR" INDICATES FEW OR NO CLOUDS BELOW 12,000 FEET WITH NO
SIGNIFICANT WEATHER AND/OR OBSTRUCTIONS TO VISIBILITY. WIND
SPEEDS ARE IN MILES-PER-HOUR.




USA.gov is the U.S. government's official web portal to all federal, state and local government web resources and services.